Nebraska City, NE (68410)

2:29 AM CST on November 24, 2014 (GMT -0600)
MesoWest NEBCTY NE US UPR | Change Station
CLOSE
Current Station
Personal Weather Station
Location: Nebraska City, NE
Elevation: 994 ft
Nearby Weather Stations

Elev 994 ft 40.69 °N, 95.87 °W | Updated 4 hours ago

Mostly Cloudy
Mostly Cloudy
39.0 °F
Feels Like 39.0 °F
N
-
Wind Variable Wind from North

Today
High -- | Low -- °F
--% Chance of Precip.
Yesterday
High -- | Low -- °F
Precip. -- in
7:20 AM 4:59 PM
Waxing Crescent, 4% visible
Pressure 29.55 in
Visibility 10.0 miles
Clouds Mostly Cloudy 3700 ft
Dew Point Not available.
Humidity Not available.
Rainfall -999.00 in
Snow Depth Not available.
UV 0 out of 12
Pollen .10 out of 12
Air Quality Not available.
Flu Activity Not available.
METAR KAFK 240815Z AUTO 33012KT 10SM BKN037 M01/M07 A2955 RMK AO2 T10071067

More Conditions Fewer Conditions

Pressure 29.55 in
Visibility 10.0 miles
Clouds Mostly Cloudy 3700 ft
Dew Point Not available.
Humidity Not available.
Rainfall -999.00 in
Snow Depth Not available.
UV 0 out of 12
Pollen .10 out of 12
Air Quality Not available.
Flu Activity Not available.
METAR KAFK 240815Z AUTO 33012KT 10SM BKN037 M01/M07 A2955 RMK AO2 T10071067

More Conditions Fewer Conditions

10-Day Weather Forecast

Almanac

Astronomy

Nov. 24, 2014 Rise Set
Actual Time
Civil Twilight
Nautical Twilight
Astronomical Twilight
Moon
Length of Visible Light
Length of Day
Tomorrow will be .
, % of the Moon is Illuminated

Today's Extremes

State Highs State Lows

Community

WunderPhotos

Upload Photos

1,773,295 photos uploaded!

WunderBlogs® & News

Nearby

Air Quality

  Air Quality AQ Index Pollutant
Not available.

Snow Depth

Station Depth Elevation

Earthquake Activity

City Distance Mag. Time & Date
Minimum magnitude displayed is 2.5.

Coastal Water Temperatures

Place Temperature

Nearby Weather Stations